Regional Weather Roundup
Issued by NWS

Home | Current Version | Previous Version | Graphics & Text | Print | Product List | Glossary On
Versions: 1 2 3 4 5 6 7 8 9 10 11 12 13 14 15 16 17 18 19 20 21 22 23 24 25 26 27 28 29 30 31 32 33 34 35 36 37 38 39 40 41 42 43 44 45 46 47 48 49 50
040
ASUS44 KJAN 221603
RWRMS

MISSISSIPPI HOURLY WEATHER ROUNDUP
NATIONAL WEATHER SERVICE JACKSON MS
1000 AM CST MON DEC 22 2014

NOTE: "FAIR: INDICATES FEW OR NO CLOUDS BELOW 12,000 FEET WITH NO
SIGNIFICANT WEATHER AND/OR OBSTRUCTIONS TO VISIBILITY.

MSZ001>002-007>008-010>013-018>021-025>028-034>036-221700-
NORTHWEST MISSISSIPPI

CITY           SKY/WX    TMP DP  RH WIND       PRES   REMARKS
CLARKSDALE     CLOUDY    54  54 100 SE13      29.80F
CLEVELAND      CLOUDY    54  54  98 S10       29.79F
GREENWOOD      CLOUDY    57  52  83 S10       29.82F
GREENVILLE     CLOUDY    54  52  93 S9        29.79F FOG
GRENADA        CLOUDY    52  50  93 E5        29.83F
OLIVE BRANCH   CLOUDY    50  50 100 S8        29.81F FOG
OXFORD         CLOUDY    50  48  93 SE7       29.84F FOG
TUNICA         CLOUDY    54  52  94 S15       29.80F
$$

MSZ003>006-009-014>017-022>024-029>033-037>039-221700-
NORTHEAST MISSISSIPPI

CITY           SKY/WX    TMP DP  RH WIND       PRES   REMARKS
COLUMBUS AFB   LGT RAIN  52  52 100 S9        29.88R FOG
CORINTH        CLOUDY    54  48  82 SE12      29.84F
GOLDN TRIANGLE CLOUDY    52  48  87 S9        29.87R
STARKVILLE     CLOUDY    52  50  93 SE10      29.86F FOG
TUPELO         CLOUDY    53  49  86 S8        29.86S
$$

MSZ040-058-221700-
CENTRAL MISSISSIPPI

CITY           SKY/WX    TMP DP  RH WIND       PRES   REMARKS
JACKSON INTL   CLOUDY    57  55  93 SE9       29.83F
JACKSON HAWKNS CLOUDY    56  55  97 SE8       29.82F FOG
MERIDIAN KEY   CLOUDY    54  54 100 SE6       29.87F FOG
MERIDIAN NAS   FOG       53  52  96 SE8       29.88S VSB 1/2
RAYMOND        CLOUDY    57  52  82 MISG      29.82F HAZE
VICKSBURG      CLOUDY    56  55  97 S8        29.81F FOG
$$

MSZ059>079-221700-
SOUTH MISSISSIPPI

CITY           SKY/WX    TMP DP  RH WIND       PRES   REMARKS
HATTIESBURG    CLOUDY    58  57  97 E6        29.86F
MCCOMB         FOG       59  58  96 SE7       29.83S VSB 1/2
NATCHEZ        CLOUDY    59  57  94 SE9       29.80F
PINE BELT      CLOUDY    57  54  88 SE6       29.86F
$$

MSZ080>082-221700-
COASTAL MISSISSIPPI

CITY           SKY/WX    TMP DP  RH WIND       PRES   REMARKS
BAY ST LOUIS   DRZL/FOG  61  57  88 E5        29.85S VSB 1
BILOXI         NOT AVBL
PASCAGOULA     CLOUDY    64  62  93 VRB3      29.86F FOG
GULFPORT       CLOUDY    62  61  96 SE8       29.85S
$$



USA.gov is the U.S. government's official web portal to all federal, state and local government web resources and services.